{"data":{"norad_id":63110,"intl_designator":"2025-039G","name":"STARLINK-11601 [DTC]","alt_names":[],"object_type":"PAYLOAD","status":"ACTIVE","operator":null,"country":"US","launch_date":"2025-02-27","launch_site_code":"AFETR","launch_vehicle":null,"mission":null,"orbit_class":"UNKNOWN","rcs_meters":null,"size_class":null,"mass_kg":null,"dimensions":null,"purposes":["comms"],"wikipedia_slug":null,"has_3d_model":false,"image_url":null,"decayed_at":null,"tle_current":{"epoch":"2026-09-20T21:04:02.941248Z","epoch_age_seconds":129693,"freshness":"FRESH","line1":"1 63110U 25039G   26263.87781182  .00130568  00000+0  10054-2 0  9995","line2":"2 63110  42.9998 140.2947 0002151 207.6078 152.4676 15.70833037 90311","mean_motion":15.70833037,"eccentricity":0.0002151,"inclination_deg":42.9998,"raan_deg":140.2947,"arg_perigee_deg":207.6078,"mean_anomaly_deg":152.4676,"bstar":0.0010054,"rev_number":9031,"period_min":91.671104826655,"perigee_km":355.06633956194,"apogee_km":357.96358683651,"semimajor_km":6734.6519631992,"source":"CELESTRAK","updated_at":"2026-09-22T09:00:49.763597Z"}}}